Location: ??????
(55.0357°N, 38.6195°E)
Time: 04:45:14
(UTC+00:00)

Cosmos 2026 Rocket - Pass Details

Date: 31 July 2024
Orbit: 939 x 999 km, 82.9° (Epoch: 20 May)

Event Time Altitude Azimuth Distance (km) Brightness Sun altitude
Rises 22:16:35 0° 349° (N) 3,710 8.3 -16.4°
Reaches altitude 10° 22:19:10 10° 354° (N) 2,765 7.5 -16.3°
Maximum altitude 22:25:26 58° 73° (ENE) 1,157 4.5 -16.1°
Enters shadow 22:31:20 12° 151° (SSE) 2,631 5.8 -15.9°
